FW7345 Weather Reports


time (UTC)temp
C
wind
direction
speed
KPH
gust
KPH
rain 1hr
cm
rain 24hr
cm
rain mn
cm
humidity
%
barometer
mb
20260510021552 23 0 0.0 3.2 0.00 0.00 0.00 78 1009.9
20260510020047 23 300 0.0 4.8 0.00 0.00 0.00 78 1009.5
20260510014547 25 0 0.0 4.8 0.00 0.00 0.00 78 1009.6
20260510013104 26 0 0.0 16.1 0.00 0.00 0.00 75 1009.2
20260510011554 26 297 4.8 14.5 0.00 0.00 0.00 71 1008.9
20260510010049 26 253 14.5 30.6 0.00 0.00 0.00 69 1009.0
20260510004550 25 71 3.2 11.3 0.00 0.00 0.00 71 1009.0
20260510003055 26 153 6.4 20.9 0.00 0.00 0.00 66 1008.8
20260510001554 25 89 6.4 19.3 0.00 0.00 0.00 69 1008.8
20260510000054 25 166 4.8 17.7 0.00 0.00 0.00 69 1008.9
20260509234552 28 106 6.4 19.3 0.00 0.00 0.00 65 1008.8
20260509233055 30 0 0.0 1.6 0.00 0.00 0.00 79 1008.2
20260509231558 30 0 0.0 0.0 0.00 0.00 0.00 76 1008.4
20260509230052 31 0 0.0 1.6 0.00 0.00 0.00 75 1008.2
20260509224549 31 0 0.0 1.6 0.00 0.00 0.00 71 1008.1
20260509223053 32 0 0.0 1.6 0.00 0.00 0.00 67 1008.1
20260509221551 33 0 0.0 3.2 0.00 0.00 0.00 65 1007.9
20260509220055 33 0 0.0 8.0 0.00 0.00 0.00 67 1008.0
20260509214553 32 0 0.0 4.8 0.00 0.00 0.00 67 1008.0
20260509213051 34 275 1.6 3.2 0.00 0.00 0.00 70 1007.9
20260509211552 33 228 0.0 3.2 0.00 0.00 0.00 70 1008.1
20260509210107 32 0 0.0 6.4 0.00 0.00 0.00 73 1008.2
20260509204600 31 313 0.0 6.4 0.00 0.00 0.00 75 1008.5
20260509203055 32 60 0.0 4.8 0.00 0.00 0.00 75 1008.6
20260509201551 32 0 1.6 8.0 0.00 0.00 0.00 74 1008.7
20260509200106 31 226 3.2 4.8 0.00 0.00 0.00 73 1009.0
20260509194555 31 25 1.6 6.4 0.00 0.00 0.00 74 1009.0
20260509193056 31 34 3.2 6.4 0.00 0.00 0.00 75 1009.2
20260509191554 31 42 0.0 8.0 0.00 0.00 0.00 75 1009.2
20260509190058 31 309 1.6 4.8 0.00 0.00 0.00 78 1009.2
20260509184645 30 0 3.2 6.4 0.00 0.00 0.00 78 1009.3
20260509183109 30 15 1.6 4.8 0.00 0.00 0.00 76 1009.7
20260509181553 30 124 0.0 4.8 0.00 0.00 0.00 80 1009.9
20260509180109 30 300 1.6 4.8 0.00 0.00 0.00 82 1010.1
20260509174549 29 281 3.2 4.8 0.00 0.20 0.00 82 1010.4
20260509173051 29 226 3.2 11.3 0.00 0.20 0.00 86 1010.4
20260509171551 28 288 0.0 6.4 0.00 0.20 0.00 83 1011.0
20260509170100 28 101 1.6 4.8 0.00 0.20 0.00 86 1010.9
20260509164551 27 184 0.0 3.2 0.00 0.23 0.00 90 1011.0
20260509163106 26 101 0.0 3.2 0.00 0.23 0.00 92 1011.0
20260509161552 26 17 0.0 1.6 0.00 0.23 0.00 95 1011.0
20260509160055 26 64 0.0 3.2 0.00 0.23 0.00 96 1011.1
20260509154555 26 0 0.0 1.6 0.00 0.23 0.00 98 1010.8
20260509153057 25 0 0.0 3.2 0.00 0.23 0.00 98 1010.9
20260509151555 25 0 0.0 3.2 0.00 0.23 0.00 99 1010.7
20260509150056 25 75 1.6 3.2 0.00 0.23 0.00 99 1010.8
20260509144553 24 0 0.0 1.6 0.00 5.79 0.00 100 1010.4
20260509143055 24 0 0.0 0.0 0.00 5.79 0.00 100 1010.2
20260509141604 24 0 0.0 1.6 0.00 5.79 0.00 100 1009.9
20260509134553 23 0 0.0 0.0 0.00 5.79 0.00 100 1010.3
20260509133052 23 0 0.0 0.0 0.00 5.79 0.00 100 1010.5
20260509131555 23 0 0.0 1.6 0.00 5.79 0.00 100 1011.0
20260509130059 23 0 0.0 0.0 0.00 5.79 0.00 100 1011.0
20260509124600 23 241 0.0 0.0 0.00 5.79 0.00 100 1011.0
20260509123101 23 0 0.0 0.0 0.00 5.79 0.00 100 1010.9
20260509121552 23 0 0.0 0.0 0.00 5.79 0.00 100 1010.9
20260509120054 23 0 0.0 1.6 0.00 5.79 0.00 100 1010.9
20260509114552 23 0 0.0 3.2 0.00 5.79 0.00 100 1010.9
20260509113106 22 0 0.0 0.0 0.00 5.79 0.00 100 1010.6
20260509111600 22 0 0.0 0.0 0.00 5.79 0.00 100 1009.9
20260509110053 -17 0.0 0.0 0.00 5.79 0.00 1010.3
20260509104557 -17 0.0 0.0 0.00 5.79 0.00 1010.1
20260509103057 -17 0.0 0.0 0.00 5.79 0.00 1009.9
20260509101551 -17 0.0 0.0 0.00 5.79 0.00 1010.2
20260509100108 -17 0.0 0.0 0.00 5.79 0.00 1010.1
20260509094554 -17 0.0 0.0 0.00 5.79 0.00 1009.8
20260509093053 -17 0.0 0.0 0.00 5.79 0.00 1009.4
20260509091603 -17 0.0 0.0 0.00 5.79 0.00 1009.6
20260509090052 -17 0.0 0.0 0.00 5.79 0.00 1010.1
20260509084551 -17 0.0 0.0 0.00 5.79 0.00 1010.0
20260509083048 23 0.0 0.0 0.00 5.79 0.00 96 1009.8
20260509081559 23 0 0.0 1.6 0.00 5.79 0.00 96 1009.8
20260509080059 23 119 0.0 3.2 0.00 5.79 0.00 96 1009.6
20260509074554 23 0 0.0 4.8 0.00 5.79 0.00 96 1009.5
20260509073104 23 175 0.0 8.0 0.00 5.79 0.00 96 1009.3
20260509071550 23 242 0.0 3.2 0.00 5.79 0.00 96 1009.9
20260509070054 23 0 0.0 0.0 0.00 5.79 0.00 96 1010.0
20260509064550 23 0 0.0 0.0 0.00 5.79 0.00 96 1010.4
20260509063059 23 0 0.0 0.0 0.00 5.79 0.00 95 1010.6
20260509061606 23 0 0.0 0.0 0.00 5.79 0.00 95 1010.2
20260509060058 23 0 0.0 1.6 0.00 5.79 0.00 95 1010.6
20260509054559 23 0 0.0 0.0 0.00 5.79 0.00 95 1010.6
20260509053100 23 0 0.0 0.0 0.00 5.79 0.00 95 1010.6
20260509051555 23 0 0.0 1.6 0.00 5.79 0.00 95 1010.5
20260509050053 23 0 0.0 4.8 0.00 5.79 0.00 95 1010.4
20260509044556 22 0 0.0 4.8 0.00 5.79 5.79 95 1010.4
20260509043059 22 0 0.0 3.2 0.00 5.79 5.79 95 1010.4
20260509041552 23 230 0.0 1.6 0.00 5.79 5.79 95 1010.4
20260509040058 22 0 0.0 1.6 0.00 5.79 5.79 95 1010.4
20260509034559 22 0 0.0 0.0 0.00 5.79 5.79 95 1010.3
20260509033055 22 0 0.0 0.0 0.00 5.79 5.79 95 1010.3
20260509031556 22 0 0.0 4.8 0.00 5.79 5.79 95 1009.9
20260509030054 22 0 0.0 0.0 0.00 5.79 5.79 95 1010.1
20260509024552 22 0 0.0 1.6 0.00 5.79 5.79 95 1010.1
20260509023048 22 0 0.0 1.6 0.00 5.79 5.79 94 1009.6